Flag for U.S.A. Weather past 2 weeks in Sioux Falls, South Dakota, U.S.A.

Now
71 °F

Broken clouds.


Feels Like: 75 °F
Forecast: 68 / 90 °F
Wind: 20 mph from South

Location: Foss Field

Current Time: Jul 24, 2014 at 7:06:39 PM

Latest Report: Jul 24, 2014 at 5:56 PM


Visibility: 10 mi

Pressure: 29.89 "Hg

Humidity: 66%

Dew point: 59 °F

Location of Sioux FallsLocation

Historic Weather in Sioux Falls — Graph

°F

Sioux Falls temperature yesterday

Maximum temperature yesterday: 80 °F (at 2:56 PM)
Minimum temperature yesterday: 58 °F (at 5:56 AM)
Average temperature yesterday: 71 °F

Past Weeks' High & Low Weather Summary

 TemperatureHumidityPressure
High87 °F (Jul 21, 4:56 PM)97% (Jul 22, 1:56 AM)30.28 "Hg (Jul 22, 1:56 AM)
Low49 °F (Jul 16, 4:56 AM)37% (Jul 16, 7:56 PM)29.74 "Hg (Jul 21, 8:56 PM)
Average71 °F71%29.98 "Hg
* Reported Jul 9 5:56 PM — Jul 24 5:56 PM, Sioux Falls, Weather by CustomWeather, © 2014

Note: Actual official high and low records may vary slightly from our data, if they occured in-between our weather recording intervals... More about our weather records

Advertising

Sioux Falls weather history for previous 24 hours

 ConditionsComfort  
Time TempWeatherWind HumidityBarometerVisibility
5:56 PM
Jul 24
71 °FBroken clouds.20 mph66%29.89 "Hg10 mi
4:56 PM71 °FBroken clouds.24 mph71%29.91 "Hg10 mi
4:04 PM69 °FBroken clouds.25 mph73%30.05 "Hg10 mi
3:56 PM73 °FBroken clouds.26 mph71%30.02 "Hg10 mi
2:56 PM75 °FBroken clouds.21 mph66%29.94 "Hg10 mi
1:56 PM71 °FPartly sunny.28 mph73%29.91 "Hg10 mi
12:56 PM67 °FPartly sunny.17 mph85%29.96 "Hg10 mi
12:03 PM66 °FThunderstorms. Fog.18 mph88%30.07 "Hg4 mi
11:56 AM66 °FStrong thunderstorms. Fog.12 mph87%30.11 "Hg4 mi
10:59 AM69 °FThunderstorms. Mostly cloudy.8 mph76%30.06 "Hg10 mi
9:56 AM69 °FBroken clouds.9 mph79%30.04 "Hg10 mi
8:56 AM66 °FBroken clouds.22 mph84%29.98 "Hg10 mi
7:56 AM66 °FLight rain. Mostly cloudy.3 mph78%30.15 "Hg10 mi
6:56 AM66 °FMostly cloudy.8 mph75%30.10 "Hg10 mi
5:56 AM65 °FPassing clouds.6 mph73%30.09 "Hg10 mi
4:56 AM65 °FPassing clouds.9 mph73%30.11 "Hg10 mi
3:56 AM64 °FClear.9 mph73%30.12 "Hg10 mi
2:56 AM64 °FClear.7 mph73%30.14 "Hg10 mi
1:56 AM64 °FClear.7 mph73%30.15 "Hg10 mi
12:56 AM64 °FClear.7 mph75%30.15 "Hg10 mi
11:56 PM
Jul 23
65 °FClear.7 mph76%30.16 "Hg10 mi
10:56 PM67 °FClear.7 mph71%30.15 "Hg10 mi
9:56 PM70 °FPassing clouds.6 mph66%30.15 "Hg10 mi
8:56 PM72 °FPassing clouds.5 mph57%30.15 "Hg10 mi
7:56 PM75 °FPassing clouds.10 mph52%30.16 "Hg10 mi
Weather by CustomWeather, © 2014

See weather overviewHow to use our weather pages